Wind_Speed
27 26 27 23 19 20 21 17 17 17 19 17 14 15 9 9 9 12 13 11 11 11 11 11 6 5 6 6 6 9 10 11 10 11 12 13 15 15 12 11 13 14 14 12 11 10 10 13 16
21 27 26 23 21 18 18 16 14 18 14 16 15 13 12 13 12 12 12 10 10 11 10 10 7 6 5 5 5 8 10 8 9 11 12 11 15 16 14 13 12 13 13 12 11 12 10 10 11
26 22 24 20 20 20 17 15 13 18 15 14 14 12 11 13 13 12 11 10 8 10 9 9 7 6 5 4 6 8 8 8 9 11 11 10 12 14 13 12 12 11 12 12 11 12 11 9 9
24 21 17 19 18 17 13 14 19 14 13 12 12 13 11 11 11 10 10 9 7 7 8 8 8 8 6 5 8 7 7 9 9 10 10 10 10 11 10 10 10 9 10 10 11 10 9 8 8
18 13 14 20 19 15 14 14 14 10 11 10 9 12 12 7 12 8 9 8 7 6 5 7 9 8 7 7 6 7 8 9 8 9 9 8 9 9 9 9 9 11 11 12 12 10 9 7 6
19 15 18 14 13 16 17 18 14 12 9 9 7 8 12 9 8 9 9 10 8 5 3 4 5 7 7 6 7 7 8 9 8 9 8 8 9 9 9 8 7 7 8 11 10 9 8 8 5
15 15 19 24 12 13 18 16 14 13 15 13 13 9 11 10 7 8 10 9 8 6 4 3 4 5 6 7 7 7 7 7 7 8 7 7 8 9 8 8 6 6 7 10 7 8 9 5 3
10 12 14 18 6 11 12 14 15 14 11 13 14 12 13 14 10 5 8 7 6 6 4 3 3 4 4 3 5 5 5 6 6 5 7 7 8 8 8 8 7 7 8 7 8 10 13 9 5
16 15 15 12 7 7 8 10 11 10 9 8 12 11 13 15 11 4 7 7 7 7 7 6 4 2 2 3 3 4 6 6 6 4 5 7 9 9 8 7 8 7 7 7 9 10 15 14 3
20 12 14 16 9 2 5 6 13 5 6 8 8 7 7 10 10 7 3 6 6 7 9 8 6 5 4 4 3 2 6 6 5 6 7 7 8 9 9 10 9 8 8 7 8 10 13 13 3
14 11 14 13 11 10 7 11 14 12 8 8 6 5 4 4 9 7 5 3 7 8 9 8 9 8 7 5 4 3 5 5 4 3 4 5 6 7 8 9 9 10 10 9 7 8 8 11 11
12 14 10 12 7 16 12 15 12 10 8 4 4 5 6 6 6 9 6 4 5 6 7 6 7 9 7 5 5 5 5 4 4 4 5 5 6 6 7 8 8 8 9 10 8 9 9 10 10
15 13 12 12 2 10 6 12 15 16 14 11 8 6 7 7 6 6 9 8 4 5 6 5 6 7 6 6 4 4 5 3 2 3 5 7 8 9 9 9 10 10 11 11 11 9 9 9 10
9 19 15 9 4 7 8 6 11 13 13 12 12 8 7 7 6 4 4 6 7 4 3 4 5 3 3 4 5 5 4 3 4 4 6 7 7 8 9 9 9 10 9 9 11 12 11 10 11
14 14 14 13 13 10 10 12 9 13 12 13 15 15 11 9 8 7 7 6 6 7 4 3 2 1 2 3 4 3 6 6 5 7 7 5 5 4 5 5 6 7 7 8 8 11 10 10 11
21 17 19 17 17 11 12 10 11 9 10 12 10 11 10 10 11 10 10 8 7 7 7 7 7 8 5 4 5 7 9 8 9 10 8 7 7 9 9 8 7 6 6 6 7 9 10 8 9
24 22 21 16 14 12 14 14 13 10 9 6 5 8 7 10 11 9 9 8 8 8 8 8 7 7 7 8 9 9 10 11 10 10 11 12 12 13 14 15 14 15 15 13 10 11 15 11 10
16 23 23 16 18 15 16 17 16 16 13 13 15 13 14 15 13 10 8 9 10 12 11 14 13 9 8 8 8 7 7 8 7 8 10 11 12 13 14 15 15 15 17 18 17 17 17 18 14
17 21 21 18 10 16 16 18 21 16 11 14 16 15 15 14 14 12 10 9 8 9 8 8 6 5 6 5 5 5 5 5 6 7 10 12 15 16 17 17 18 18 18 19 21 21 21 19 20
25 20 17 11 15 20 17 20 10 15 13 14 14 16 15 11 9 9 8 6 7 6 6 6 6 6 7 8 9 9 7 5 5 6 7 9 11 14 17 20 21 21 20 22 23 24 24 24 23
18 11 8 9 17 18 11 9 11 20 17 16 13 16 16 15 9 11 8 3 2 1 2 4 6 9 10 9 9 9 8 10 10 10 11 13 14 16 18 20 21 22 23 23 25 27 28 28 29
14 11 4 8 12 12 9 6 14 19 18 15 11 12 12 11 8 9 7 6 4 6 4 3 3 4 6 9 12 12 13 14 14 13 14 17 18 19 19 21 22 24 25 24 25 27 28 30 30
12 6 5 18 7 6 11 3 8 13 18 7 13 15 16 18 16 11 7 9 17 14 7 7 5 7 10 11 11 14 18 19 20 18 17 18 19 22 23 24 26 28 28 29 29 30 30 31 30
8 6 14 10 7 6 3 4 7 14 14 10 16 17 21 24 20 22 24 21 17 9 14 14 14 16 14 11 11 12 15 18 21 25 25 25 27 28 29 29 28 28 28 28 29 31 31 31 32
11 9 10 9 11 6 4 6 7 15 8 12 15 18 26 24 26 26 25 17 17 19 6 10 12 24 27 31 23 18 19 21 25 28 29 29 28 28 28 27 28 30 31 32 34 34 35 36 35
17 10 6 9 14 10 13 10 11 9 6 11 8 17 25 26 24 26 26 25 25 26 21 27 22 21 32 32 32 34 28 30 32 35 33 33 33 32 33 34 36 35 34 35 36 37 37 39 39
9 6 3 6 7 9 12 4 12 14 12 3 7 8 22 20 21 24 27 31 28 26 29 29 30 29 31 35 40 37 30 29 34 37 39 41 39 39 41 41 43 45 44 41 40 40 40 41 42
14 11 6 3 4 4 5 8 6 6 7 2 7 14 20 14 19 23 22 23 25 31 31 33 36 39 39 37 40 47 36 31 39 37 40 38 41 43 44 46 48 49 49 47 45 43 42 42 40
12 13 15 10 7 6 5 5 5 4 8 12 15 24 18 23 28 29 31 32 28 29 32 38 43 46 44 45 40 49 49 43 45 41 41 44 45 47 49 51 53 54 53 52 50 49 48 45 42
13 12 12 19 13 15 10 9 10 10 12 16 22 25 29 31 36 38 33 35 36 38 39 40 41 42 42 43 55 51 34 31 42 46 48 44 51 51 50 53 57 54 55 58 59 56 50 50 46
Wind_Direction
87 84 106 118 105 88 86 89 96 84 92 100 109 104 108 93 99 102 101 101 125 119 124 129 135 114 97 84 58 73 71 78 80 83 85 90 86 83 87 79 72 73 78 74 75 71 82 87 94
103 103 104 105 94 88 94 89 88 91 88 82 77 88 95 93 92 96 94 106 122 120 118 119 130 127 111 88 51 57 56 67 70 72 75 90 92 86 87 85 78 71 70 68 65 66 63 77 86
86 88 89 113 108 105 97 92 89 94 94 90 88 89 80 81 78 74 78 95 113 107 107 109 116 115 111 102 59 56 50 52 56 59 66 73 88 90 89 90 80 76 67 64 62 63 60 61 77
106 107 112 108 92 85 86 85 81 83 102 102 109 97 88 87 88 75 77 86 100 111 108 104 112 114 115 86 67 66 61 61 55 57 61 68 73 81 81 86 88 76 62 51 55 58 65 61 59
91 96 101 94 80 104 105 93 98 99 87 101 100 102 104 74 91 82 84 95 115 136 124 118 109 110 100 83 85 82 78 70 65 60 52 48 61 72 74 79 88 76 68 58 50 46 41 59 57
94 93 81 78 94 86 97 95 97 90 81 77 94 110 111 98 92 104 90 81 81 93 108 107 118 110 101 102 97 92 89 78 63 61 57 54 52 57 62 71 75 73 57 46 37 42 31 22 31
90 99 108 91 71 67 83 86 80 80 86 89 90 101 110 94 85 83 94 102 105 109 122 151 150 149 144 131 120 109 92 76 63 67 62 58 53 50 44 43 45 35 36 26 33 33 18 333 359
114 105 103 83 64 75 78 81 91 94 80 73 74 83 91 106 110 86 98 106 85 75 93 130 171 172 154 131 114 99 84 76 70 59 57 57 64 56 39 31 34 25 27 27 20 29 11 358 257
111 104 96 76 79 60 70 66 68 69 85 75 73 66 68 83 104 93 79 79 67 67 75 79 85 91 91 68 50 74 68 62 56 48 43 38 48 55 47 28 18 15 14 10 17 18 8 20 29
105 111 97 94 56 76 130 55 68 66 83 59 52 61 68 70 90 110 87 104 102 80 69 67 79 90 93 87 74 72 77 64 58 50 48 44 42 34 33 33 24 6 6 7 3 34 3 6 40
121 91 91 85 47 34 67 56 73 86 65 45 52 52 61 80 101 104 118 123 110 93 78 67 69 74 73 86 96 87 76 67 38 17 10 6 17 20 14 27 12 14 2 2 353 357 360 25 28
101 111 69 60 19 37 29 32 48 53 69 55 33 60 63 59 83 106 105 90 88 96 87 66 55 66 64 62 59 62 52 49 26 13 15 353 4 360 1 358 354 354 356 345 360 348 336 356 360
153 127 80 91 76 29 32 56 54 41 37 41 35 49 57 66 76 86 115 121 82 40 41 64 45 39 48 52 53 47 38 26 41 356 357 351 351 348 350 349 339 347 339 335 335 340 324 332 344
134 88 85 77 82 31 30 28 38 46 35 35 41 45 54 59 75 90 90 98 118 102 28 33 38 28 14 33 20 14 19 17 22 24 18 349 350 355 342 353 353 356 345 342 338 331 322 318 324
78 101 80 85 67 90 69 34 44 50 40 41 43 37 40 42 47 52 54 49 60 97 110 74 56 77 54 55 68 40 25 356 40 58 52 51 41 39 4 2 7 355 345 352 339 321 324 328 316
104 97 86 87 77 76 59 51 56 58 35 33 42 54 59 50 60 62 70 63 57 62 63 77 95 108 106 103 78 75 77 75 41 47 54 43 25 20 15 6 3 334 320 317 311 313 317 314 299
81 79 97 113 79 74 69 57 53 50 49 50 73 86 70 59 73 70 67 63 67 68 66 67 99 104 102 96 72 53 37 35 34 12 8 12 12 5 1 1 356 353 346 348 336 315 309 296 284
92 92 93 99 98 95 82 72 65 58 65 67 66 72 68 57 53 52 49 65 69 70 62 85 92 80 62 56 43 29 25 18 3 358 351 347 346 343 340 339 337 340 338 338 334 329 335 328 318
83 81 80 82 79 78 74 73 73 66 64 73 70 67 61 57 49 38 42 61 53 56 52 69 66 43 42 31 17 2 4 6 360 357 350 342 339 335 330 322 316 317 317 321 323 323 322 318 319
82 79 72 68 61 62 75 65 88 70 79 80 83 72 51 55 52 47 38 41 39 30 23 10 3 358 356 350 341 338 340 350 348 342 336 330 324 315 310 309 309 308 309 308 308 310 313 313 315
93 87 74 43 37 40 68 43 42 53 72 94 87 41 43 44 44 40 41 20 72 67 40 15 358 338 332 329 327 323 317 319 320 316 311 305 302 300 300 299 297 298 300 300 301 302 304 304 305
126 100 57 10 41 41 38 38 41 48 78 117 87 53 55 24 55 62 62 38 305 242 227 245 296 319 323 335 327 319 314 308 302 296 294 295 294 293 294 295 298 298 297 296 297 298 298 298 299
117 123 7 100 39 14 38 102 47 36 24 42 52 33 21 9 42 47 5 10 354 302 292 284 292 303 311 313 312 313 311 306 301 293 288 284 286 291 294 293 295 297 297 299 301 299 297 296 293
120 92 66 43 12 131 3 340 16 33 15 45 15 8 13 6 4 11 21 28 15 15 348 323 318 323 312 305 307 307 306 305 302 299 296 294 295 294 292 294 294 291 291 295 296 297 297 297 296
111 75 46 42 7 348 316 302 339 13 18 16 2 12 10 358 350 356 359 18 5 7 38 349 350 332 328 320 308 301 302 302 299 295 294 295 292 290 289 291 291 292 292 291 290 291 293 292 290
139 108 42 329 316 325 320 285 310 2 27 360 328 4 2 344 342 345 343 353 355 350 334 324 309 321 313 308 305 306 309 310 308 305 305 303 301 299 297 298 297 294 291 291 291 290 289 287 286
127 123 177 338 305 318 322 10 14 338 349 317 298 329 344 347 347 338 337 330 332 325 319 315 312 311 304 302 302 293 302 297 305 307 308 306 303 302 301 301 300 299 297 294 291 289 288 285 284
164 166 170 262 18 283 340 48 349 323 351 229 244 288 325 348 340 332 325 317 312 312 315 308 305 306 306 300 295 284 304 291 297 302 299 298 296 298 298 298 296 295 294 292 290 288 286 284 280
175 199 206 221 274 288 307 279 204 247 251 259 281 290 316 324 328 321 311 310 305 303 302 306 309 308 306 302 299 295 303 305 297 294 294 294 297 296 296 295 297 297 300 298 293 291 287 283 278
262 276 232 217 229 256 277 291 229 275 258 275 281 306 321 320 316 316 302 305 306 311 312 312 306 303 302 306 302 289 261 292 287 284 292 290 285 290 291 298 297 300 298 298 300 298 292 284 277
Height
5908 5908 5910 5910 5914 5911 5911 5913 5912 5911 5915 5914 5915 5914 5915 5914 5914 5916 5915 5915 5915 5915 5915 5916 5917 5917 5917 5917 5918 5919 5919 5919 5919 5919 5918 5916 5915 5913 5912 5910 5910 5909 5909 5909 5908 5907 5906 5907 5908
5913 5912 5913 5914 5915 5915 5914 5913 5915 5917 5915 5914 5915 5916 5917 5918 5917 5916 5917 5917 5917 5917 5918 5918 5919 5918 5919 5919 5920 5920 5920 5921 5921 5920 5920 5919 5918 5915 5914 5913 5912 5912 5911 5910 5910 5909 5909 5908 5908
5913 5914 5915 5917 5916 5915 5914 5914 5916 5919 5920 5919 5919 5919 5918 5917 5917 5918 5918 5918 5920 5920 5920 5920 5921 5921 5921 5921 5922 5922 5923 5923 5922 5922 5921 5921 5920 5918 5917 5916 5915 5914 5913 5913 5912 5911 5910 5911 5911
5918 5921 5920 5919 5917 5916 5916 5917 5920 5920 5920 5921 5921 5920 5920 5919 5919 5919 5919 5920 5921 5922 5922 5922 5922 5923 5924 5924 5924 5925 5925 5924 5923 5924 5923 5923 5921 5920 5921 5920 5918 5917 5916 5915 5914 5913 5912 5911 5912
5919 5921 5920 5916 5918 5919 5920 5921 5920 5921 5922 5922 5922 5923 5923 5920 5921 5920 5922 5922 5923 5923 5923 5923 5924 5924 5925 5925 5926 5927 5927 5926 5926 5926 5925 5925 5924 5924 5923 5923 5921 5919 5919 5917 5916 5915 5914 5913 5913
5921 5922 5921 5919 5920 5921 5922 5924 5924 5924 5925 5925 5925 5926 5926 5924 5922 5924 5924 5925 5925 5924 5925 5925 5926 5926 5927 5927 5928 5928 5928 5928 5928 5927 5927 5926 5926 5926 5926 5926 5924 5923 5921 5920 5918 5917 5917 5916 5915
5924 5925 5922 5922 5923 5923 5923 5924 5925 5926 5926 5927 5926 5926 5929 5927 5924 5923 5926 5926 5926 5926 5926 5927 5927 5927 5927 5927 5928 5929 5929 5930 5929 5928 5928 5927 5927 5927 5927 5927 5927 5925 5924 5923 5920 5920 5920 5918 5916
5928 5928 5926 5923 5926 5926 5926 5927 5930 5930 5928 5928 5928 5928 5928 5929 5928 5927 5928 5928 5927 5927 5928 5928 5929 5929 5929 5930 5929 5929 5930 5931 5930 5929 5928 5927 5927 5928 5928 5927 5927 5926 5925 5924 5924 5923 5921 5918 5917
5927 5929 5927 5926 5928 5927 5928 5928 5928 5930 5930 5929 5928 5928 5927 5928 5929 5927 5927 5928 5928 5929 5929 5928 5928 5929 5930 5931 5931 5931 5931 5932 5931 5930 5929 5928 5928 5928 5928 5927 5927 5926 5927 5926 5925 5924 5922 5919 5917
5930 5930 5928 5927 5930 5930 5929 5929 5930 5930 5930 5928 5928 5928 5927 5927 5930 5929 5928 5930 5930 5930 5929 5928 5928 5929 5929 5930 5931 5931 5931 5932 5932 5932 5931 5929 5929 5929 5929 5927 5927 5926 5926 5927 5925 5925 5923 5921 5919
5931 5932 5929 5928 5930 5929 5929 5928 5932 5931 5930 5929 5930 5929 5928 5928 5930 5929 5929 5929 5931 5930 5929 5929 5929 5929 5929 5930 5930 5931 5931 5932 5932 5932 5931 5930 5929 5930 5929 5927 5927 5926 5926 5927 5926 5924 5922 5921 5922
5933 5934 5932 5932 5932 5931 5929 5930 5932 5933 5933 5932 5931 5931 5930 5928 5929 5931 5930 5928 5928 5930 5930 5929 5929 5930 5930 5931 5931 5930 5931 5932 5932 5931 5930 5930 5929 5930 5929 5927 5926 5925 5925 5925 5924 5923 5922 5922 5921
5932 5934 5935 5935 5934 5932 5931 5932 5932 5932 5933 5931 5931 5930 5930 5930 5929 5930 5932 5931 5928 5927 5929 5930 5929 5929 5930 5930 5931 5930 5930 5931 5931 5931 5930 5930 5929 5929 5928 5928 5926 5925 5924 5924 5922 5921 5920 5921 5920
5915 5934 5934 5935 5936 5933 5932 5934 5933 5931 5932 5932 5931 5931 5930 5931 5931 5931 5930 5932 5934 5932 5930 5930 5930 5930 5930 5930 5930 5930 5930 5929 5929 5929 5928 5928 5927 5927 5927 5926 5925 5924 5924 5923 5920 5919 5921 5920 5920
5935 5937 5935 5938 5937 5937 5934 5934 5933 5932 5933 5932 5931 5932 5933 5933 5932 5931 5930 5931 5931 5933 5933 5932 5932 5932 5931 5931 5931 5930 5928 5928 5928 5928 5927 5927 5927 5927 5926 5925 5924 5922 5921 5920 5919 5916 5918 5919 5919
5934 5935 5933 5939 5940 5939 5937 5936 5934 5934 5935 5934 5935 5935 5935 5935 5933 5932 5931 5931 5931 5931 5932 5933 5933 5934 5933 5933 5932 5933 5933 5932 5928 5927 5929 5927 5926 5925 5924 5923 5923 5921 5920 5919 5918 5915 5913 5916 5916
5939 5937 5939 5942 5941 5940 5940 5939 5938 5939 5937 5938 5937 5936 5936 5935 5933 5933 5932 5932 5931 5931 5931 5931 5931 5933 5935 5934 5933 5933 5932 5931 5931 5930 5928 5926 5926 5924 5922 5921 5919 5918 5916 5915 5914 5913 5910 5913 5913
5942 5941 5942 5944 5944 5943 5944 5943 5942 5941 5940 5940 5938 5938 5937 5936 5935 5935 5934 5933 5933 5932 5931 5931 5932 5932 5930 5930 5931 5931 5931 5931 5930 5929 5928 5926 5925 5923 5921 5919 5918 5916 5914 5912 5911 5910 5908 5906 5908
5944 5942 5943 5942 5946 5947 5948 5947 5945 5943 5943 5941 5940 5938 5938 5938 5938 5938 5936 5935 5935 5935 5934 5932 5932 5932 5931 5930 5930 5930 5929 5928 5928 5927 5926 5925 5923 5921 5920 5919 5916 5914 5912 5909 5907 5906 5904 5904 5902
5940 5941 5940 5942 5945 5947 5949 5948 5950 5948 5942 5941 5941 5940 5940 5940 5939 5938 5938 5938 5938 5937 5937 5936 5935 5934 5934 5933 5932 5931 5929 5927 5926 5925 5925 5924 5923 5922 5919 5916 5914 5912 5909 5907 5904 5902 5901 5898 5897
5942 5942 5939 5944 5944 5945 5947 5948 5949 5945 5941 5940 5943 5942 5942 5942 5941 5939 5939 5938 5936 5936 5935 5935 5935 5935 5934 5933 5931 5930 5928 5927 5924 5922 5920 5919 5918 5917 5916 5913 5911 5908 5906 5903 5901 5898 5896 5894 5890
5943 5945 5947 5944 5946 5947 5946 5947 5946 5944 5943 5943 5944 5944 5945 5944 5940 5939 5938 5936 5935 5934 5934 5934 5934 5933 5932 5931 5930 5929 5926 5923 5921 5918 5915 5914 5912 5911 5911 5909 5906 5903 5901 5899 5896 5893 5891 5889 5886
5946 5945 5945 5946 5950 5947 5946 5946 5945 5943 5941 5943 5942 5942 5941 5939 5940 5939 5938 5938 5937 5935 5935 5934 5931 5930 5929 5927 5924 5923 5922 5920 5918 5915 5912 5910 5908 5905 5903 5901 5900 5897 5894 5892 5889 5887 5885 5883 5881
5943 5946 5948 5949 5947 5947 5947 5946 5944 5942 5941 5941 5940 5940 5938 5936 5937 5937 5938 5935 5936 5935 5935 5931 5930 5928 5925 5923 5920 5918 5916 5915 5913 5910 5907 5903 5900 5897 5895 5893 5891 5890 5888 5885 5882 5880 5877 5875 5873
5945 5946 5947 5949 5947 5945 5944 5944 5942 5939 5940 5939 5938 5937 5935 5933 5932 5932 5934 5935 5932 5929 5929 5929 5927 5925 5924 5921 5916 5912 5909 5907 5906 5902 5899 5897 5894 5892 5889 5886 5883 5880 5878 5876 5873 5871 5868 5865 5864
5946 5947 5946 5947 5944 5944 5943 5943 5941 5939 5940 5939 5936 5934 5933 5931 5930 5929 5929 5930 5928 5925 5924 5924 5925 5923 5916 5914 5911 5908 5902 5899 5897 5894 5887 5884 5883 5880 5878 5877 5875 5871 5868 5865 5862 5860 5858 5854 5852
5947 5947 5946 5946 5944 5942 5940 5941 5940 5938 5939 5938 5935 5934 5935 5933 5931 5930 5928 5925 5925 5925 5922 5919 5916 5915 5912 5908 5903 5901 5893 5888 5887 5885 5881 5878 5876 5872 5868 5865 5861 5858 5856 5854 5850 5846 5844 5841 5839
5945 5946 5946 5944 5942 5940 5938 5938 5938 5937 5936 5937 5933 5934 5934 5932 5930 5929 5926 5924 5922 5920 5919 5916 5912 5908 5906 5903 5896 5886 5879 5872 5878 5874 5874 5869 5866 5863 5858 5855 5850 5844 5840 5838 5834 5831 5828 5825 5825
5945 5944 5944 5944 5942 5938 5937 5936 5936 5936 5934 5932 5933 5931 5931 5928 5926 5925 5922 5920 5919 5917 5915 5908 5903 5899 5897 5890 5883 5863 5852 5867 5867 5863 5860 5858 5854 5850 5846 5841 5836 5831 5827 5824 5822 5818 5815 5812 5810
5942 5941 5940 5941 5939 5936 5935 5935 5932 5932 5932 5932 5933 5931 5927 5924 5921 5919 5917 5914 5911 5907 5903 5901 5896 5890 5883 5876 5869 5851 5812 5819 5850 5851 5848 5844 5841 5835 5830 5824 5819 5817 5813 5810 5808 5805 5802 5798 5795